Time,TemperatureF,DewpointF,PressureIn,WindDirection,WindDirectionDegrees,WindSpeedMPH,WindSpeedGustMPH,Humidity,HourlyPrecipIn,Conditions,Clouds,dailyrainin,SolarRadiationWatts/m^2,SoftwareType,DateUTC
2013-03-27 00:00:00,35.0,29.0,-100.00,WNW,292,6.0,-999.0,78,-99.99,,,-99.99,0.000000,,2013-03-27 04:00:00,
2013-03-27 00:43:00,35.0,29.0,-100.00,WNW,292,6.0,-999.0,78,-99.99,,,-99.99,0.000000,,2013-03-27 04:43:00,
2013-03-27 00:52:00,35.0,29.0,-100.00,WNW,292,6.0,-999.0,78,-99.99,,,-99.99,0.000000,,2013-03-27 04:52:00,
2013-03-27 01:00:00,34.0,28.0,-100.00,WNW,292,5.0,-999.0,78,-99.99,,,-99.99,0.000000,,2013-03-27 05:00:00,
2013-03-27 01:42:00,34.0,28.0,-100.00,WNW,292,5.0,-999.0,78,-99.99,,,-99.99,0.000000,,2013-03-27 05:42:00,
2013-03-27 01:52:00,34.0,28.0,-100.00,WNW,292,5.0,-999.0,78,-99.99,,,-99.99,0.000000,,2013-03-27 05:52:00,
2013-03-27 03:00:00,32.0,29.0,-100.00,WNW,292,3.0,-999.0,87,-99.99,,,-99.99,0.000000,,2013-03-27 07:00:00,
2013-03-27 03:43:00,32.0,29.0,-100.00,WNW,292,3.0,-999.0,87,-99.99,,,-99.99,0.000000,,2013-03-27 07:43:00,
2013-03-27 03:53:00,32.0,29.0,-100.00,WNW,292,3.0,-999.0,87,-99.99,,,-99.99,0.000000,,2013-03-27 07:53:00,
2013-03-27 05:00:00,31.0,29.0,-100.00,WNW,292,1.0,-999.0,91,-99.99,,,-99.99,0.000000,,2013-03-27 09:00:00,
2013-03-27 05:42:00,31.0,29.0,-100.00,WNW,292,1.0,-999.0,91,-99.99,,,-99.99,0.000000,,2013-03-27 09:42:00,
2013-03-27 05:52:00,31.0,29.0,-100.00,WNW,292,1.0,-999.0,91,-99.99,,,-99.99,0.000000,,2013-03-27 09:52:00,
2013-03-27 06:00:00,31.0,29.0,-100.00,WNW,292,0.0,-999.0,92,-99.99,,,-99.99,0.000000,,2013-03-27 10:00:00,
2013-03-27 06:42:00,31.0,29.0,-100.00,WNW,292,0.0,-999.0,92,-99.99,,,-99.99,0.000000,,2013-03-27 10:42:00,
2013-03-27 06:53:00,31.0,29.0,-100.00,WNW,292,0.0,-999.0,92,-99.99,,,-99.99,0.000000,,2013-03-27 10:53:00,
2013-03-27 07:00:00,30.0,29.0,-100.00,West,270,1.0,-999.0,93,-99.99,,,-99.99,0.000000,,2013-03-27 11:00:00,
2013-03-27 07:42:00,30.0,29.0,-100.00,West,270,1.0,-999.0,93,-99.99,,,-99.99,0.000000,,2013-03-27 11:42:00,
2013-03-27 07:53:00,30.0,29.0,-100.00,West,270,1.0,-999.0,93,-99.99,,,-99.99,0.000000,,2013-03-27 11:53:00,
2013-03-27 08:00:00,30.0,28.0,-100.00,WNW,292,1.0,-999.0,92,-99.99,,,-99.99,4.640000,,2013-03-27 12:00:00,
2013-03-27 08:43:00,30.0,28.0,-100.00,WNW,292,1.0,-999.0,92,-99.99,,,-99.99,4.640000,,2013-03-27 12:43:00,
2013-03-27 08:52:00,30.0,28.0,-100.00,WNW,292,1.0,-999.0,92,-99.99,,,-99.99,4.640000,,2013-03-27 12:52:00,
2013-03-27 09:00:00,33.0,28.0,-100.00,WNW,292,3.0,-999.0,83,-99.99,,,-99.99,112.519997,,2013-03-27 13:00:00,
2013-03-27 09:42:00,33.0,28.0,-100.00,WNW,292,3.0,-999.0,83,-99.99,,,-99.99,112.519997,,2013-03-27 13:42:00,
2013-03-27 09:53:00,33.0,28.0,-100.00,WNW,292,3.0,-999.0,83,-99.99,,,-99.99,112.519997,,2013-03-27 13:53:00,
2013-03-27 10:00:00,37.0,27.0,-100.00,WNW,292,9.0,-999.0,66,-99.99,,,-99.99,257.519989,,2013-03-27 14:00:00,
2013-03-27 10:42:00,37.0,27.0,-100.00,WNW,292,9.0,-999.0,66,-99.99,,,-99.99,257.519989,,2013-03-27 14:42:00,
2013-03-27 10:52:00,37.0,27.0,-100.00,WNW,292,9.0,-999.0,66,-99.99,,,-99.99,257.519989,,2013-03-27 14:52:00,
2013-03-27 11:00:00,39.0,25.0,-100.00,WNW,292,12.0,-999.0,56,-99.99,,,-99.99,403.679993,,2013-03-27 15:00:00,
2013-03-27 11:43:00,39.0,25.0,-100.00,WNW,292,12.0,-999.0,56,-99.99,,,-99.99,403.679993,,2013-03-27 15:43:00,
2013-03-27 11:52:00,39.0,25.0,-100.00,WNW,292,12.0,-999.0,56,-99.99,,,-99.99,403.679993,,2013-03-27 15:52:00,
2013-03-27 12:00:00,40.0,24.0,-100.00,West,270,13.0,-999.0,52,-99.99,,,-99.99,526.640015,,2013-03-27 16:00:00,
2013-03-27 12:42:00,40.0,24.0,-100.00,West,270,13.0,-999.0,52,-99.99,,,-99.99,526.640015,,2013-03-27 16:42:00,
2013-03-27 12:52:00,40.0,24.0,-100.00,West,270,13.0,-999.0,52,-99.99,,,-99.99,526.640015,,2013-03-27 16:52:00,
2013-03-27 13:00:00,41.0,24.0,-100.00,WSW,247,12.0,-999.0,51,-99.99,,,-99.99,613.640015,,2013-03-27 17:00:00,
2013-03-27 13:44:00,41.0,24.0,-100.00,WSW,247,12.0,-999.0,51,-99.99,,,-99.99,613.640015,,2013-03-27 17:44:00,
2013-03-27 13:52:00,41.0,24.0,-100.00,WSW,247,12.0,-999.0,51,-99.99,,,-99.99,613.640015,,2013-03-27 17:52:00,
2013-03-27 14:00:00,41.0,25.0,-100.00,WSW,247,12.0,-999.0,53,-99.99,,,-99.99,656.559998,,2013-03-27 18:00:00,
2013-03-27 14:42:00,41.0,25.0,-100.00,WSW,247,12.0,-999.0,53,-99.99,,,-99.99,656.559998,,2013-03-27 18:42:00,
2013-03-27 14:53:00,41.0,25.0,-100.00,WSW,247,12.0,-999.0,53,-99.99,,,-99.99,656.559998,,2013-03-27 18:53:00,
2013-03-27 15:00:00,41.0,26.0,-100.00,WSW,247,12.0,-999.0,55,-99.99,,,-99.99,651.919983,,2013-03-27 19:00:00,
2013-03-27 15:42:00,41.0,26.0,-100.00,WSW,247,12.0,-999.0,55,-99.99,,,-99.99,651.919983,,2013-03-27 19:42:00,
2013-03-27 15:52:00,41.0,26.0,-100.00,WSW,247,12.0,-999.0,55,-99.99,,,-99.99,651.919983,,2013-03-27 19:52:00,
2013-03-27 16:00:00,41.0,26.0,-100.00,WSW,247,13.0,-999.0,53,-99.99,,,-99.99,597.400024,,2013-03-27 20:00:00,
2013-03-27 16:43:00,41.0,26.0,-100.00,WSW,247,13.0,-999.0,53,-99.99,,,-99.99,597.400024,,2013-03-27 20:43:00,
2013-03-27 16:52:00,41.0,26.0,-100.00,WSW,247,13.0,-999.0,53,-99.99,,,-99.99,597.400024,,2013-03-27 20:52:00,
2013-03-27 17:00:00,41.0,23.0,-100.00,WSW,247,13.0,-999.0,49,-99.99,,,-99.99,501.119995,,2013-03-27 21:00:00,
2013-03-27 17:43:00,41.0,23.0,-100.00,WSW,247,13.0,-999.0,49,-99.99,,,-99.99,501.119995,,2013-03-27 21:43:00,
2013-03-27 17:52:00,41.0,23.0,-100.00,WSW,247,13.0,-999.0,49,-99.99,,,-99.99,501.119995,,2013-03-27 21:52:00,
2013-03-27 18:00:00,41.0,21.0,-100.00,WSW,247,13.0,-999.0,46,-99.99,,,-99.99,372.359985,,2013-03-27 22:00:00,
2013-03-27 18:42:00,41.0,21.0,-100.00,WSW,247,13.0,-999.0,46,-99.99,,,-99.99,372.359985,,2013-03-27 22:42:00,
2013-03-27 18:53:00,41.0,21.0,-100.00,WSW,247,13.0,-999.0,46,-99.99,,,-99.99,372.359985,,2013-03-27 22:53:00,
2013-03-27 19:00:00,40.0,22.0,-100.00,WSW,247,11.0,-999.0,47,-99.99,,,-99.99,219.240005,,2013-03-27 23:00:00,
2013-03-27 19:43:00,40.0,22.0,-100.00,WSW,247,11.0,-999.0,47,-99.99,,,-99.99,219.240005,,2013-03-27 23:43:00,
2013-03-27 19:52:00,40.0,22.0,-100.00,WSW,247,11.0,-999.0,47,-99.99,,,-99.99,219.240005,,2013-03-27 23:52:00,
2013-03-27 20:00:00,38.0,22.0,-100.00,WSW,247,8.0,-999.0,51,-99.99,,,-99.99,68.440002,,2013-03-28 00:00:00,
2013-03-27 20:43:00,38.0,22.0,-100.00,WSW,247,8.0,-999.0,51,-99.99,,,-99.99,68.440002,,2013-03-28 00:43:00,
2013-03-27 20:52:00,38.0,22.0,-100.00,WSW,247,8.0,-999.0,51,-99.99,,,-99.99,68.440002,,2013-03-28 00:52:00,
2013-03-27 21:00:00,36.0,24.0,-100.00,WSW,247,3.0,-999.0,62,-99.99,,,-99.99,1.160000,,2013-03-28 01:00:00,
2013-03-27 21:42:00,36.0,24.0,-100.00,WSW,247,3.0,-999.0,62,-99.99,,,-99.99,1.160000,,2013-03-28 01:42:00,
2013-03-27 21:53:00,36.0,24.0,-100.00,WSW,247,3.0,-999.0,62,-99.99,,,-99.99,1.160000,,2013-03-28 01:53:00,
2013-03-27 22:00:00,33.0,24.0,-100.00,SW,225,1.0,-999.0,69,-99.99,,,-99.99,0.000000,,2013-03-28 02:00:00,
2013-03-27 23:00:00,32.0,26.0,-100.00,SSW,202,1.0,-999.0,79,-99.99,,,-99.99,0.000000,,2013-03-28 03:00:00,
2013-03-27 23:43:00,32.0,26.0,-100.00,SSW,202,1.0,-999.0,79,-99.99,,,-99.99,0.000000,,2013-03-28 03:43:00,
2013-03-27 23:53:00,32.0,26.0,-100.00,SSW,202,1.0,-999.0,79,-99.99,,,-99.99,0.000000,,2013-03-28 03:53:00,